When you browse on this site, cookies collect data to enhance your experience and personalize the content and advertising you see.
Visit our Privacy Policy to learn more. By continuing to use the site, you agree to this use of cookies and data.
  • In Portugal
  • List of Countries
  • For 7 days
  • Water Temperature
  • Weather Map
  • Weather Widgets
  • user-avatar
    Login

    Hourly Weather Verhnee Stepnoe

    Today, 21 August, Wednesday

    Time Temperature Precipitation Wind Pressure Humidity
    00:00 +19°C° 0 mm 2 mps 754 mmHg 91%
    01:00 +18°C° 0 mm 2 mps 754 mmHg 92%
    02:00 +18°C° 0 mm 2 mps 754 mmHg 94%
    03:00 +18°C° 0 mm 2 mps 755 mmHg 96%
    04:00 +18°C° 0 mm 2 mps 755 mmHg 95%
    05:00 +18°C° 0 mm 3 mps 755 mmHg 93%
    06:00 +18°C° 0 mm 3 mps 755 mmHg 92%
    07:00 +20°C° 0 mm 3 mps 755 mmHg 86%
    08:00 +21°C° 0 mm 3 mps 755 mmHg 79%
    09:00 +24°C° 0 mm 3 mps 756 mmHg 72%
    10:00 +23°C° 0 mm 4 mps 756 mmHg 69%
    11:00 +25°C° 0 mm 4 mps 756 mmHg 66%
    12:00 +26°C° 0 mm 4 mps 755 mmHg 63%
    13:00 +26°C° 0 mm 4 mps 755 mmHg 64%
    14:00 +26°C° 0 mm 4 mps 755 mmHg 65%
    15:00 +26°C° 0 mm 5 mps 755 mmHg 66%
    16:00 +25°C° 0 mm 4 mps 755 mmHg 70%
    17:00 +24°C° 0 mm 3 mps 755 mmHg 74%
    18:00 +24°C° 0 mm 2 mps 755 mmHg 78%
    19:00 +21°C° 0 mm 2 mps 755 mmHg 82%
    20:00 +20°C° 0 mm 2 mps 755 mmHg 86%
    21:00 +19°C° 0 mm 2 mps 755 mmHg 90%
    22:00 +20°C° 0 mm 1 mps 755 mmHg 90%
    23:00 +19°C° 0 mm 1 mps 755 mmHg 91%

    Tomorrow, 22 August, Thursday

    Time Temperature Precipitation Wind Pressure Humidity
    00:00 +19°C° 0 mm 1 mps 755 mmHg 92%
    01:00 +18°C° 0 mm 1 mps 756 mmHg 92%
    02:00 +18°C° 0 mm 1 mps 756 mmHg 93%
    03:00 +17°C° 0 mm 2 mps 756 mmHg 93%
    04:00 +17°C° 0 mm 2 mps 756 mmHg 92%
    05:00 +17°C° 0 mm 2 mps 756 mmHg 91%
    06:00 +18°C° 0 mm 2 mps 756 mmHg 90%
    07:00 +19°C° 0 mm 2 mps 756 mmHg 84%
    08:00 +20°C° 0 mm 2 mps 756 mmHg 77%
    09:00 +23°C° 0 mm 2 mps 756 mmHg 70%
    10:00 +24°C° 0 mm 2 mps 756 mmHg 66%
    11:00 +25°C° 0 mm 1 mps 756 mmHg 62%
    12:00 +26°C° 0 mm 1 mps 755 mmHg 58%
    13:00 +26°C° 0 mm 1 mps 755 mmHg 56%
    14:00 +27°C° 0 mm 1 mps 755 mmHg 54%
    15:00 +27°C° 0 mm 1 mps 755 mmHg 53%
    16:00 +26°C° 0 mm 1 mps 755 mmHg 57%
    17:00 +25°C° 0 mm 1 mps 755 mmHg 62%
    18:00 +24°C° 0 mm 1 mps 755 mmHg 66%
    19:00 +23°C° 0 mm 1 mps 755 mmHg 69%
    20:00 +22°C° 0 mm 1 mps 755 mmHg 71%
    21:00 +21°C° 0 mm 1 mps 755 mmHg 74%
    22:00 +21°C° 0 mm 1 mps 755 mmHg 75%
    23:00 +20°C° 0 mm 1 mps 755 mmHg 76%

    Day after tomorrow, 23 August, Friday

    Time Temperature Precipitation Wind Pressure Humidity
    00:00 +20°C° 0 mm 1 mps 755 mmHg 78%
    01:00 +20°C° 0 mm 1 mps 755 mmHg 79%
    02:00 +19°C° 0 mm 1 mps 755 mmHg 81%
    03:00 +19°C° 0 mm 1 mps 755 mmHg 83%
    04:00 +19°C° 0 mm 1 mps 755 mmHg 82%
    05:00 +20°C° 0 mm 1 mps 755 mmHg 82%
    06:00 +20°C° 0 mm 1 mps 755 mmHg 81%
    07:00 +22°C° 0 mm 1 mps 755 mmHg 75%
    08:00 +23°C° 0 mm 1 mps 755 mmHg 70%
    09:00 +25°C° 0 mm 1 mps 755 mmHg 64%
    10:00 +26°C° 0.1 mm 2 mps 755 mmHg 63%
    11:00 +27°C° 0.1 mm 2 mps 755 mmHg 63%
    12:00 +27°C° 0.1 mm 2 mps 755 mmHg 62%
    13:00 +27°C° 0.6 mm 3 mps 755 mmHg 66%
    14:00 +26°C° 0.6 mm 4 mps 755 mmHg 71%
    15:00 +25°C° 0.6 mm 4 mps 755 mmHg 75%
    16:00 +23°C° 0.1 mm 4 mps 755 mmHg 77%
    17:00 +22°C° 0.1 mm 4 mps 755 mmHg 79%
    18:00 +21°C° 0.1 mm 3 mps 755 mmHg 81%
    19:00 +20°C° 0 mm 3 mps 755 mmHg 82%
    20:00 +19°C° 0 mm 3 mps 756 mmHg 83%
    21:00 +18°C° 0 mm 3 mps 756 mmHg 83%
    22:00 +17°C° 0 mm 3 mps 756 mmHg 83%
    23:00 +16°C° 0 mm 3 mps 756 mmHg 83%

    24 August, Saturday

    Time Temperature Precipitation Wind Pressure Humidity
    00:00 +16°C° 0 mm 3 mps 756 mmHg 83%
    01:00 +15°C° 0 mm 2 mps 756 mmHg 84%
    02:00 +15°C° 0 mm 2 mps 756 mmHg 84%
    03:00 +15°C° 0 mm 2 mps 757 mmHg 85%
    04:00 +15°C° 0 mm 2 mps 757 mmHg 85%
    05:00 +15°C° 0 mm 2 mps 757 mmHg 84%
    06:00 +15°C° 0 mm 2 mps 757 mmHg 84%
    07:00 +17°C° 0 mm 2 mps 757 mmHg 77%
    08:00 +18°C° 0 mm 3 mps 757 mmHg 70%
    09:00 +20°C° 0 mm 3 mps 757 mmHg 63%
    10:00 +21°C° 0 mm 3 mps 757 mmHg 58%
    11:00 +22°C° 0 mm 3 mps 757 mmHg 53%
    12:00 +24°C° 0 mm 3 mps 757 mmHg 48%
    13:00 +24°C° 0 mm 3 mps 757 mmHg 48%
    14:00 +24°C° 0 mm 3 mps 757 mmHg 47%
    15:00 +24°C° 0 mm 3 mps 757 mmHg 47%
    16:00 +22°C° 0 mm 3 mps 757 mmHg 53%
    17:00 +21°C° 0 mm 2 mps 757 mmHg 60%
    18:00 +20°C° 0 mm 2 mps 756 mmHg 66%
    19:00 +19°C° 0 mm 2 mps 756 mmHg 69%
    20:00 +18°C° 0 mm 1 mps 756 mmHg 72%
    21:00 +16°C° 0 mm 1 mps 756 mmHg 75%
    22:00 +16°C° 0 mm 1 mps 756 mmHg 77%
    23:00 +14°C° 0 mm 0 mps 756 mmHg 78%

    25 August, Sunday

    Time Temperature Precipitation Wind Pressure Humidity
    00:00 +14°C° 0 mm 0 mps 756 mmHg 79%
    01:00 +14°C° 0 mm 0 mps 756 mmHg 80%
    02:00 +13°C° 0 mm 0 mps 756 mmHg 82%
    03:00 +13°C° 0 mm 0 mps 756 mmHg 83%
    04:00 +13°C° 0 mm 0 mps 756 mmHg 82%
    05:00 +14°C° 0 mm 0 mps 755 mmHg 80%
    06:00 +15°C° 0 mm 1 mps 755 mmHg 79%
    07:00 +18°C° 0 mm 1 mps 755 mmHg 73%
    08:00 +19°C° 0 mm 2 mps 755 mmHg 67%
    09:00 +20°C° 0 mm 2 mps 755 mmHg 61%
    10:00 +21°C° 0 mm 3 mps 754 mmHg 57%
    11:00 +22°C° 0 mm 3 mps 754 mmHg 53%
    12:00 +24°C° 0 mm 3 mps 754 mmHg 49%
    13:00 +25°C° 0 mm 4 mps 753 mmHg 49%
    14:00 +25°C° 0 mm 4 mps 753 mmHg 49%
    15:00 +25°C° 0 mm 4 mps 752 mmHg 49%
    16:00 +24°C° 0 mm 3 mps 752 mmHg 55%
    17:00 +22°C° 0 mm 3 mps 752 mmHg 61%
    18:00 +20°C° 0 mm 2 mps 752 mmHg 67%
    19:00 +19°C° 0 mm 3 mps 751 mmHg 71%
    20:00 +18°C° 0 mm 3 mps 751 mmHg 74%
    21:00 +17°C° 0 mm 3 mps 751 mmHg 77%
    22:00 +16°C° 0 mm 3 mps 751 mmHg 82%
    23:00 +15°C° 0 mm 2 mps 751 mmHg 88%

    26 August, Monday

    Time Temperature Precipitation Wind Pressure Humidity
    00:00 +15°C° 0 mm 2 mps 751 mmHg 93%
    01:00 +14°C° 0 mm 3 mps 751 mmHg 91%
    02:00 +14°C° 0 mm 3 mps 751 mmHg 89%
    03:00 +14°C° 0 mm 4 mps 751 mmHg 87%
    04:00 +13°C° 0 mm 4 mps 752 mmHg 87%
    05:00 +13°C° 0 mm 5 mps 752 mmHg 87%
    06:00 +13°C° 0 mm 5 mps 752 mmHg 87%
    07:00 +13°C° 0 mm 5 mps 753 mmHg 82%
    08:00 +13°C° 0 mm 6 mps 753 mmHg 77%
    09:00 +13°C° 0 mm 6 mps 754 mmHg 72%
    10:00 +13°C° 0 mm 6 mps 754 mmHg 72%
    11:00 +13°C° 0 mm 6 mps 754 mmHg 72%
    12:00 +11°C° 0 mm 6 mps 755 mmHg 72%
    13:00 +11°C° 0 mm 6 mps 755 mmHg 71%
    14:00 +11°C° 0 mm 7 mps 755 mmHg 70%
    15:00 +11°C° 0 mm 7 mps 755 mmHg 69%
    16:00 +11°C° 0 mm 6 mps 755 mmHg 69%
    17:00 +11°C° 0 mm 6 mps 756 mmHg 70%
    18:00 +10°C° 0 mm 5 mps 756 mmHg 71%
    19:00 +9°C° 0 mm 5 mps 756 mmHg 72%
    20:00 +8°C° 0 mm 4 mps 756 mmHg 73%
    21:00 +7°C° 0 mm 4 mps 756 mmHg 74%
    22:00 +7°C° 0 mm 3 mps 757 mmHg 75%
    23:00 +7°C° 0 mm 3 mps 757 mmHg 76%
    Show more